Flag for Finland Weather past 2 weeks in Kemi, Finland

Now
59 °F

Low clouds.


Feels Like: 58 °F
Forecast: 53 / 65 °F
Wind: 8 mph from South

Location: Kemi Airport

Current Time: Jul 30, 2015 at 9:40:08 AM

Latest Report: Jul 30, 2015 at 8:50 AM


Visibility: N/A

Pressure: 29.36 "Hg

Humidity: 94%

Dew point: 57 °F

Location of KemiLocation

Historic Weather in Kemi — Graph

°F

Kemi temperature yesterday

Maximum temperature yesterday: 63 °F (at 10:20 AM)
Minimum temperature yesterday: 52 °F (at 3:50 AM)
Average temperature yesterday: 59 °F

Past Weeks' High & Low Weather Summary

 TemperatureHumidityPressure
High68 °F (Jul 23, 5:20 PM)100% (Jul 16, 2:20 AM)29.89 "Hg (Jul 16, 2:20 AM)
Low43 °F (Jul 17, 3:50 AM)52% (Jul 17, 5:20 PM)29.33 "Hg (Jul 30, 2:50 AM)
Average58 °F85%29.64 "Hg
* Reported Jul 15 8:20 AM — Jul 30 8:20 AM, Kemi, Weather by CustomWeather, © 2015

Note: Actual official high and low records may vary slightly from our data, if they occured in-between our weather recording intervals... More about our weather records

Advertising

Kemi weather history for previous 24 hours

 ConditionsComfort  
Time TempWeatherWind HumidityBarometerVisibility
8:20 AM
Thu, Jul 30
59 °FLow clouds.9 mph94%29.36 "HgN/A
7:50 AM59 °FLow clouds.10 mph94%29.36 "HgN/A
7:20 AM59 °FLow clouds.8 mph94%29.36 "HgN/A
6:50 AM59 °FLow clouds.9 mph94%29.36 "HgN/A
6:20 AM59 °FLow clouds.6 mph100%29.36 "HgN/A
5:50 AM59 °FLow clouds.7 mph100%29.33 "HgN/A
5:20 AM59 °FLow clouds.5 mph100%29.33 "HgN/A
4:50 AM57 °FMostly cloudy.3 mph100%29.33 "HgN/A
4:20 AM57 °FMostly cloudy.2 mph100%29.33 "HgN/A
3:50 AM57 °FOvercast.3 mph100%29.36 "Hg6 mi
3:20 AM57 °FFog.2 mph100%29.36 "Hg1 mi
2:50 AM57 °FFog.2 mph100%29.33 "Hg2 mi
2:20 AM55 °FFog.No wind100%29.36 "Hg0 mi
1:50 AM57 °FFog.No wind100%29.36 "Hg0 mi
1:20 AM57 °FSprinkles. Fog.1 mph100%29.36 "Hg1 mi
12:50 AM57 °FLight rain. Fog.1 mph100%29.36 "Hg1 mi
12:20 AM57 °FFog.1 mph100%29.36 "Hg0 mi
11:50 PM
Wed, Jul 29
59 °FSprinkles. Partly sunny.No wind94%29.36 "HgN/A
11:20 PM59 °FSprinkles. Partly sunny.1 mph100%29.36 "HgN/A
10:50 PM59 °FSprinkles. Overcast.1 mph100%29.36 "HgN/A
10:20 PM59 °FSprinkles. More clouds than sun.2 mph100%29.39 "HgN/A
9:50 PM59 °FSprinkles. Overcast.1 mph100%29.39 "HgN/A
9:20 PM59 °FMore clouds than sun.No wind100%29.39 "HgN/A
8:50 PM59 °FSprinkles. Mostly cloudy.1 mph100%29.39 "HgN/A
8:20 PM59 °FRain showers. More clouds than sun.1 mph100%29.39 "HgN/A
7:50 PM59 °FLight rain. Low clouds.2 mph100%29.39 "HgN/A
7:20 PM59 °FSprinkles. Low clouds.2 mph100%29.39 "HgN/A
6:50 PM59 °FSprinkles. Mostly cloudy.2 mph100%29.39 "HgN/A
6:20 PM59 °FLight rain. Fog.3 mph100%29.42 "Hg2 mi
5:50 PM61 °FLow clouds.2 mph94%29.42 "HgN/A
5:20 PM59 °FLow clouds.6 mph94%29.42 "HgN/A
4:50 PM61 °FOvercast.6 mph94%29.42 "Hg3 mi
4:20 PM61 °FLight rain. Overcast.5 mph88%29.42 "HgN/A
3:50 PM61 °FOvercast.6 mph83%29.45 "HgN/A
3:20 PM61 °FOvercast.6 mph88%29.45 "HgN/A
2:50 PM63 °FOvercast.9 mph83%29.45 "HgN/A
2:20 PM61 °FOvercast.6 mph88%29.45 "HgN/A
1:50 PM61 °FOvercast.7 mph83%29.45 "HgN/A
1:20 PM61 °FOvercast.7 mph83%29.45 "HgN/A
12:50 PM63 °FOvercast.7 mph77%29.45 "HgN/A
12:20 PM63 °FOvercast.6 mph77%29.47 "HgN/A
11:50 AM63 °FPartly sunny.10 mph77%29.47 "HgN/A
11:20 AM63 °FBroken clouds.9 mph77%29.47 "HgN/A
10:20 AM63 °FPassing clouds.9 mph83%29.50 "HgN/A
9:50 AM61 °FPassing clouds.8 mph88%29.50 "HgN/A
9:20 AM61 °FPassing clouds.8 mph88%29.50 "HgN/A
Weather by CustomWeather, © 2015

See weather overviewHow to use our weather pages